#timestamp,LO_Frequency,Hit,StdDev 
1591570815.1,286046985.8,N
1591570835.9,286046988.3,N
1591570855.7,286046987.5,N
1591570875.6,286046986.9,N
1591570895.4,286046991.5,N
1591570915.2,286046993.3,N
1591570935.1,286046994.3,N
1591570936.0,286046994.3,N
1591570955.8,286046987.9,N
1591570975.6,286046987.1,Y
1591570995.5,286046999.4,P
1591571015.3,286047001.6,N
1591571035.2,286047001.6,N
1591571055.9,286047002.0,N
1591571075.7,286047000.8,N
1591571095.6,286046997.1,N
1591571115.4,286046997.7,N
1591571135.2,286047001.2,N
1591571155.1,286047003.3,N
1591571156.0,286047003.3,N
1591571175.8,286047002.2,N
1591571195.7,286046998.8,N
1591571215.5,286047000.2,N
1591571235.3,286047004.4,N
1591571255.2,286047005.0,N
1591571275.9,286047009.0,N
1591571295.7,286047010.5,N
1591571315.6,286047008.3,N
1591571335.4,286047009.3,N
1591571355.3,286047009.8,N
1591571375.1,286047012.4,N
1591571376.0,286047012.4,N
1591571395.8,286047012.1,N
1591571415.7,286047011.3,N
1591571435.5,286047006.4,N
1591571455.3,286046999.7,N
1591571475.2,286047004.2,N
1591571495.0,286047002.3,N
1591571495.9,286047002.3,N
1591571515.8,286047000.4,N
1591571535.6,286047002.6,N
1591571555.4,286046997.6,N
1591571575.3,286046992.3,N
1591571595.1,286046993.9,N
1591571615.8,286046987.2,N
1591571635.7,286046987.0,N
1591571655.5,286046992.5,N
1591571675.4,286046990.6,N
1591571695.2,286046988.6,N
1591571715.0,286046987.6,N
1591571715.9,286046987.6,N
1591571735.8,286046994.5,N
1591571755.6,286046997.5,N
1591571775.4,286047000.0,N
1591571795.3,286047001.9,N
1591571815.1,286047003.2,N
1591571835.9,286047001.5,N
1591571855.7,286047000.1,N
1591571875.5,286047002.5,N
1591571895.4,286046998.1,N
1591571915.2,286046995.0,N
1591571935.0,286047000.5,N
1591571935.9,286047000.5,N
1591571955.8,286046997.3,N
1591571975.6,286046993.5,N
1591571995.5,286046990.1,N
1591572015.3,286046990.2,N
1591572035.1,286046986.5,N
1591572055.9,286046991.5,N
1591572075.7,286046991.5,N
1591572095.5,286046987.3,N
1591572115.4,286046984.7,N
1591572135.2,286046980.9,Y
1591572155.1,286046989.8,P
1591572156.0,286046989.8,P
1591572175.8,286046991.6,P
1591572195.6,286046996.4,N
1591572215.5,286046999.5,N
1591572235.3,286046999.5,N
1591572255.1,286046999.4,N
1591572275.9,286047002.7,N
1591572295.7,286047000.0,N
1591572315.6,286046996.1,N
1591572335.4,286046995.5,N
1591572355.3,286046993.6,N
1591572375.1,286046993.3,N
1591572376.0,286046993.3,N
1591572395.8,286046997.4,N
1591572415.7,286046994.7,N
1591572435.5,286046996.5,N
1591572455.3,286047002.5,N
1591572475.2,286047002.6,N
1591572495.0,286047004.2,N
1591572495.9,286047004.2,N
1591572515.8,286047004.8,N
1591572535.6,286047010.6,N
1591572555.5,286047013.5,N
1591572575.3,286047009.1,N
1591572595.1,286047008.3,N
1591572615.9,286047006.1,N
1591572635.7,286047005.8,N
1591572655.5,286047006.4,N
1591572675.4,286047007.0,N
1591572695.2,286047005.9,N
1591572715.1,286047003.8,N
1591572716.0,286047003.8,N
1591572735.8,286046998.6,N
1591572755.6,286046993.6,N
1591572775.5,286046994.6,N
1591572795.3,286046995.8,N
1591572815.2,286046997.0,N
1591572835.9,286046996.6,N
1591572855.7,286046993.3,N
1591572875.6,286046992.5,N
1591572895.4,286046994.5,N
1591572915.2,286046994.6,N
1591572935.1,286046998.0,N
1591572936.0,286046998.0,N
1591572955.8,286046999.1,N
1591572975.7,286047001.0,N
1591572995.5,286046997.1,N
1591573015.3,286046996.4,N
1591573035.2,286046996.9,N
1591573055.0,286046997.7,N
1591573055.9,286046997.7,N
1591573075.7,286046999.3,N
1591573095.6,286046999.8,N
1591573115.4,286046996.7,N
1591573135.3,286046992.0,N
1591573155.1,286046992.1,N
1591573156.0,286046992.1,N
1591573175.8,286046996.0,N
1591573195.7,286046999.0,N
1591573215.5,286047001.9,N
1591573235.3,286047000.9,N
1591573255.2,286046997.0,N
1591573275.0,286047001.2,N
1591573275.9,286047001.2,N
1591573295.8,286047002.8,N
1591573315.6,286046999.5,N
1591573335.4,286046999.5,N
1591573355.3,286047005.5,N
1591573375.1,286047009.7,N
1591573395.9,286046987.2,Y
1591573415.7,286046999.7,P
1591573435.5,286047001.5,N
1591573455.4,286046999.3,N
1591573475.2,286047004.0,Y
1591573495.0,286047001.4,P
1591573495.9,286047001.4,N
1591573515.8,286046999.0,N
1591573535.6,286047000.7,N
1591573555.5,286047006.0,Y
1591573575.3,286046999.7,P
1591573595.1,286046992.8,P
1591573615.9,286046985.6,P
1591573635.7,286046988.7,N
1591573655.5,286046990.4,N
1591573675.4,286046989.5,N
1591573695.2,286046989.4,N
1591573715.1,286046985.9,N
1591573716.0,286046985.9,N
1591573735.8,286046986.4,N
1591573755.6,286046990.5,N
1591573775.5,286046988.9,N
1591573795.3,286046988.8,N
1591573815.1,286046989.9,N
1591573835.9,286046992.6,N
1591573855.7,286046990.9,N
1591573875.6,286046985.4,Y
1591573895.4,286047001.4,P
1591573915.2,286047005.7,N
1591573935.1,286047006.3,N
1591573936.0,286047006.3,N
1591573955.8,286047004.0,N
1591573975.6,286047003.3,N
1591573995.5,286047002.8,N
1591574015.3,286047005.0,N
1591574035.2,286047004.7,N
1591574055.9,286047006.1,N
1591574075.7,286047006.6,N
1591574095.6,286047006.2,N
1591574115.4,286047007.3,N
1591574135.2,286047006.8,N
1591574155.1,286047006.2,N
1591574156.0,286047006.2,N
1591574175.8,286046999.7,N
1591574195.7,286047001.7,N
1591574215.5,286047001.6,N
1591574235.3,286047006.0,N
1591574255.2,286047006.9,N
1591574275.9,286047007.7,N
1591574295.7,286047013.3,Y
1591574315.6,286047009.1,P
1591574335.4,286047010.6,P
1591574355.3,286047013.8,P
1591574375.1,286047012.5,Y
1591574376.0,286047012.5,P
1591574395.8,286047006.8,P
